AirNav   Duncan Aviation - Near you to keep you flying
 
 362 users online  

1I5 Freehold Airport
Freehold, New York, USA

GOING TO FREEHOLD?


FAA INFORMATION EFFECTIVE 03 NOVEMBER 2022

Location

FAA Identifier: 1I5
Lat/Long: 42-21-50.4000N 074-03-54.1000W
42-21.840000N 074-03.901667W
42.3640000,-74.0650278
(estimated)
Elevation: 440 ft. / 134 m (estimated)
Variation: 14W (1985)
From city: 1 mile NW of FREEHOLD, NY
Time zone: UTC -5 (UTC -4 during Daylight Saving Time)
Zip code: 12431

Airport Operations

Airport use: Open to the public
Activation date: 07/1969
Control tower: no
ARTCC: BOSTON CENTER
FSS: BURLINGTON FLIGHT SERVICE STATION
NOTAMs facility: BTV (NOTAM-D service available)
Attendance: APR-DEC 0900-DUSK
Wind indicator: yes
Segmented circle: no

Airport Communications

CTAF: 122.85
WX AWOS-3 at 1B1 (16 nm E): 133.525 (518-828-2577)

Nearby radio navigation aids

VOR radial/distance  VOR name  Freq  Var
ALBr220/25.7ALBANY VORTAC115.3013W

 
NDB name  Hdg/Dist  Freq  Var  ID
PHILMONT307/16.627213WPFH .--. ..-. ....
HUNTER205/30.035614WHEU .... . ..-
JOHNSTOWN177/39.952314WJJH .--- .--- ....

Airport Services

Parking: tiedowns
Airframe service: NONE
Powerplant service: NONE

Runway Information

Runway 12/30

Dimensions: 2275 x 22 ft. / 693 x 7 m
100 FT BY 2640 FT TURF RWY ADJACENT TO PAVED RWY (S EDGE) BEGINNING AT 735 FT FROM RWY 30 THLD.
Surface: asphalt, in poor condition
SURFACE BROKEN & SPALLING FOR ENTIRE LENGTH.
RUNWAY 12  RUNWAY 30
Latitude: 42-21.903982N42-21.777210N
Longitude: 074-04.139745W074-03.664357W
Elevation: 437.0 ft.421.0 ft.
Traffic pattern: leftleft
Runway heading: 124 magnetic, 110 true304 magnetic, 290 true
Markings: nonenone
Obstructions: 67 ft. trees, 812 ft. from runway, 86 ft. right of centerline, 9:1 slope to clear
10 FT HIGH FENCE APPROX. PARALLEL TO RWY, 42 FT LT., 50 - 700 FT FRM THSLD.
31 ft. trees, marked, 315 ft. from runway, 35 ft. left of centerline, 3:1 slope to clear
31 FT TREES IN APCH TO RWY 315 FT FM END OF RWY, 35 FT LEFT OF CNTRLN.

Airport Ownership and Management from official FAA records

Ownership: Privately-owned
Owner: FREEHOLD AIRPORT LLC.
C/O GERARD CALAMARI, 115 BURDEN LAKE ROAD
AVERILL PARK, NY 12018
Phone 518-966-8503
Manager: TOM MAY
580 OLD PLANK ROAD
GREENVILLE, NY 12083
Phone 518-966-8503

Airport Operational Statistics

Aircraft based on the field: 27
Single engine airplanes: 13
Gliders airplanes: 13
Ultralights: 1
    
Aircraft operations: avg 50/week *
85% local general aviation
11% transient general aviation
4% military
* for 12-month period ending 30 June 2020

Additional Remarks

A30A-12 RGT TFC FOR GLIDERS RY 12 ONLY.
EXTENSIVE GLIDER ACTIVITY, ESPECIALLY ON WEEKENDS.
RY 12 ORCHARDS 100 FT LEFT & 112 FT RIGHT RY CNTRLN & 59 FT TREES IN APCH TO RY 288 FT FM THLD.
RGT TFC FOR GLIDERS RY 12 ONLY.
CONTACT AIRPORT MANAGER FOR FIELD CONDITIONS DEC 1 -APR 1; PH. 518-966-8503
FOR CD CTC ALBANY APCH AT 518-862-2299.

Instrument Procedures

There are no published instrument procedures at 1I5.

Some nearby airports with instrument procedures:

4B0 - South Albany Airport (16 nm NE)
1B1 - Columbia County Airport (16 nm E)
20N - Kingston-Ulster Airport (23 nm S)
KALB - Albany International Airport (26 nm NE)
KSCH - Schenectady County Airport (30 nm N)
 
Loc | Ops | Rwys | IFR | FBO | Links
Com | Nav | Svcs | Stats | Notes
Area around 1I5 (Freehold Airport)
 
Road maps at: MapQuest Bing Google
 
Aerial photo
WARNING: Photo may not be current or correct
Aerial photo of 1I5 (Freehold Airport)
Photo courtesy of Adam Pass, www.birddogaerials.com
Photo taken 25-Feb-2009

Do you have a better or more recent aerial photo of Freehold Airport that you would like to share? If so, please send us your photo.

 
Sectional chart

 
Airport distance calculator
Flying to Freehold Airport? Find the distance to fly.

From to 1I5

Sunrise and sunset
Times for 28-Nov-2022
 Local
(UTC-5)
 Zulu
(UTC)
Morning civil twilight06:3211:32
Sunrise07:0412:04
Sunset16:2521:25
Evening civil twilight16:5621:56

Current date and time
Zulu (UTC)  28-Nov-2022 08:36:37
Local (UTC-5)  28-Nov-2022 03:36:37
 
METAR
KALB 
26nm NE 
280751Z 15006KT 10SM OVC038 08/07 A2937 RMK AO2 SLP948 T00830067
KSCH 
30nm N 
280145Z 23005KT 5SM RN OVC006 07/07 A2933 RMK LAST
KPSF 
35nm E 
280754Z AUTO 25011KT 10SM OVC049 08/06 A2934 RMK AO2 SLP933 T00830056 $
KNY0 
40nm N 
280815Z AUTO 31008G21KT 10SM BKN014 BKN021 OVC026 07/06 A2939 RMK AO2
KAQW 
45nm NE 
280752Z AUTO 26010G18KT 10SM SCT037 OVC048 11/06 A2934 RMK AO2 SLP939 T01060061
KPOU 
45nm S 
280753Z AUTO 22005KT 10SM OVC050 09/07 A2943 RMK AO2 SLP964 T00940072
TAF
KALB 
26nm NE 
280802Z 2808/2906 16009KT P6SM OVC035 WS020/25035KT TEMPO 2808/2809 BKN025 FM280900 25012G18KT P6SM OVC025 FM281200 29014G24KT P6SM BKN025 OVC035 FM281700 32013G22KT P6SM BKN035 FM282300 33010KT P6SM SCT035
NOTAMs
Click for the latest NOTAMs
NOTAMs are issued by the DoD/FAA and will open in a separate window not controlled by AirNav.

 

 
 

Where to Eat: Catering, Restaurants, Food shops

  
 Business Name 
 
 Contact 
 
 Services / Description 
 
Distance
 
Comments
  
Freehold Country Restaurant and Pub 518-634-7454
[web site]
Catering, Internet access, Restrooms, Restaurant

More info about Freehold Country Restaurant and Pub
1 mile
free shuttle
 
   write
 

Would you like to see your business listed on this page?

 If your business provides an interesting product or service to pilots, flight crews, aircraft, or users of the Freehold Airport, you should consider listing it here.  To start the listing process, click on the button below
 
Add a business
 

Other Pages about Freehold Airport

Update a link
 
Copyright © AirNav, LLC. All rights reserved. Privacy Policy  Contact